Weather History for Madison, WI

Change the Weather History Date:

Thursday, January 10, 2013

  Actual Average Record
Temperature  
Mean Temperature 27 °F 19 °F  
Max Temperature 38 °F 26 °F 53 °F (1975)
Min Temperature 15 °F 11 °F -22 °F (1979)
Degree Days  
Heating Degree Days 38 46  
Month to date heating degree days 428 460  
Since 1 July heating degree days 3023 3339  
Cooling Degree Days 0 0  
Month to date cooling degree days 0 0  
Year to date cooling degree days 0 0  
Moisture  
Dew Point 26 °F    
Average Humidity 78    
Maximum Humidity 92    
Minimum Humidity 64    
Precipitation  
Precipitation 0.24 in 0.04 in 1.12 in (1869)
Month to date precipitation 0.24 0.41  
Year to date precipitation 0.24 0.41  
Snow  
Snow 0.00 in 0.40 in 5.30 in (1974)
Month to date snowfall T 4.0  
Since 1 July snowfall 23.5 21.6  
Snow Depth 8.00 in    
Sea Level Pressure  
Sea Level Pressure 30.23 in    
Wind  
Wind Speed 5 mph (ESE)    
Max Wind Speed 37 mph    
Max Gust Speed 92 mph    
Visibility 8 miles    
Events Rain    
T = Trace of Precipitation, MM = Missing Value Source: NWS Daily Summary

Daily Weather History Graph

Daily Weather History Graph

Search for Another Location

Airport:

Trip Planner

Search our weather history database for the weather conditions in past years. The results will help you decide how hot, cold, wet, or windy it might be!

Date:

Astronomy

Jan. 10, 2013 Rise Set
Actual Time 7:28 AM CST 4:42 PM CST
Civil Twilight 6:56 AM CST 5:14 PM CST
Nautical Twilight 6:20 AM CST 5:49 PM CST
Astronomical Twilight 5:46 AM CST 6:23 PM CST
Moon 6:07 AM CST (1/10) 3:50 PM CST (1/10)
Length of Visible Light 10h 17m
Length of Day
9h 14m
Waning Crescent, 2% of the Moon is Illuminated
Jan 10
Waning Crescent
Jan 11
New
Jan 18
First Quarter
Jan 26
Full
Feb 3
Last Quarter

Hourly Weather History & Observations

Time (CST) Temp. Windchill Dew Point Humidity Pressure Visibility Wind Dir Wind Speed Gust Speed Precip Events Conditions
12:53 AM 21.0 °F - 18.0 °F 88% 30.50 in 10.0 mi Calm Calm - N/A   Clear
1:53 AM 19.9 °F - 17.1 °F 89% 30.50 in 10.0 mi Calm Calm - N/A   Clear
2:53 AM 19.0 °F - 16.0 °F 88% 30.51 in 10.0 mi Calm Calm - N/A   Clear
3:53 AM 21.2 °F - 17.6 °F 86% 30.46 in 10.0 mi Calm Calm - N/A   Clear
4:53 AM 17.1 °F - 15.1 °F 92% 30.48 in 10.0 mi Calm Calm - N/A   Clear
5:53 AM 15.8 °F - 12.2 °F 86% 30.43 in 10.0 mi Calm Calm - N/A   Clear
6:53 AM 15.1 °F - 12.0 °F 88% 30.48 in 10.0 mi Calm Calm - N/A   Clear
7:53 AM 17.1 °F - 14.0 °F 88% 30.48 in 10.0 mi Calm Calm - N/A   Clear
8:53 AM 21.9 °F - 18.0 °F 85% 30.46 in 10.0 mi Calm Calm - N/A   Clear
9:53 AM 28.9 °F 23.9 °F 21.9 °F 75% 30.44 in 10.0 mi SE 4.6 mph - N/A   Clear
10:53 AM 32.0 °F 25.6 °F 23.0 °F 69% 30.39 in 10.0 mi ESE 6.9 mph - N/A   Clear
11:53 AM 35.1 °F 27.4 °F 25.0 °F 67% 30.33 in 10.0 mi SE 10.4 mph - N/A   Clear
12:53 PM 36.0 °F 29.0 °F 26.1 °F 67% 30.29 in 10.0 mi SE 9.2 mph - N/A   Clear
1:53 PM 37.0 °F 31.6 °F 28.0 °F 70% 30.25 in 10.0 mi ESE 6.9 mph - N/A   Clear
2:53 PM 37.0 °F 31.6 °F 28.9 °F 73% 30.22 in 10.0 mi ESE 6.9 mph - N/A   Clear
3:53 PM 37.0 °F 30.4 °F 30.0 °F 76% 30.19 in 10.0 mi ESE 9.2 mph - 0.00 in Rain Light Rain
4:53 PM 37.9 °F 31.5 °F 30.0 °F 73% 30.15 in 10.0 mi East 9.2 mph - 0.00 in Rain Light Rain
5:53 PM 37.0 °F 29.3 °F 30.9 °F 79% 30.12 in 9.0 mi East 11.5 mph - 0.03 in Rain Light Rain
6:01 PM 35.6 °F 27.5 °F 30.2 °F 81% 30.08 in 7.0 mi ESE 11.5 mph - 0.00 in Rain Light Rain
6:43 PM 35.6 °F 26.2 °F 33.8 °F 93% 30.05 in 4.0 mi ESE 15.0 mph - 0.02 in Rain Light Rain
6:53 PM 35.1 °F 25.9 °F 33.1 °F 92% 30.08 in 3.0 mi ESE 13.8 mph - 0.02 in Rain Light Rain
7:30 PM 35.6 °F 27.1 °F 33.8 °F 93% 30.02 in 4.0 mi SE 12.7 mph - 0.01 in   Light Drizzle
7:48 PM 35.6 °F 27.5 °F 33.8 °F 93% 30.01 in 4.0 mi SE 11.5 mph - 0.01 in Rain Light Rain
7:53 PM 36.0 °F 28.0 °F 33.1 °F 89% 30.04 in 4.0 mi SE 11.5 mph - 0.02 in Rain Light Rain
8:53 PM 36.0 °F 29.0 °F 34.0 °F 93% 30.00 in 4.0 mi SE 9.2 mph - 0.05 in Rain Light Rain
9:53 PM 36.0 °F 30.3 °F 34.0 °F 93% 29.94 in 4.0 mi SE 6.9 mph - 0.03 in Rain Light Rain
10:53 PM 35.6 °F 29.2 °F 33.8 °F 93% 29.89 in 4.0 mi SE 8.1 mph - N/A Rain Light Rain
11:53 PM 35.1 °F 31.0 °F 34.0 °F 96% 29.89 in 5.0 mi SE 4.6 mph - 0.05 in Rain Light Rain